This demonstration page uses our WeatherBlox Daily Observations layout. Learn more.

Left ArrowRight Arrow

44.8408, -93.29828

Hourly Observations for September 30, 2021

Temp ( °F °C ) Dew Point ( °F °C ) Humidity (%) Winds ( mph kmh ) Pressure ( in mb ) Visibility ( mi km ) Precip ( " mm )
12:53 am 00:53 Partly Cloudy 70 21.1 61 16.1 73 73 SE 9 15 30.05 1018 10 16 0.00 0.00
1:53 am 01:53 Mostly Cloudy 73 22.8 61 16.1 66 66 SE 7 11 30.05 1018 10 16 0.00 0.00
2:53 am 02:53 Partly Cloudy 67 19.4 60 15.6 79 79 SSE 3 6 30.06 1018 10 16 0.00 0.00
3:53 am 03:53 Partly Cloudy 66 18.9 60 15.6 81 81 ESE 6 9 30.06 1018 10 16 0.00 0.00
4:53 am 04:53 Partly Cloudy 65 18.3 60 15.6 84 84 E 7 11 30.06 1018 10 16 0.00 0.00
5:53 am 05:53 Mostly Clear 65 18.3 59 15 81 81 ESE 7 11 30.06 1018 10 16 0.00 0.00
6:53 am 06:53 Mostly Clear 63 17.2 59 15 87 87 Calm 30.08 1019 10 16 0.00 0.00
7:53 am 07:53 Mostly Sunny 64 17.8 59 15 84 84 SE 6 9 30.09 1019 10 16 0.00 0.00
8:53 am 08:53 Mostly Sunny 66 18.9 59 15 78 78 SE 7 11 30.10 1019 10 16 0.00 0.00
9:53 am 09:53 Mostly Sunny 70 21.1 60 15.6 71 71 ESE 6 9 30.11 1020 10 16 0.00 0.00
10:53 am 10:53 Partly Cloudy 75 23.9 62 16.7 64 64 S 9 15 30.12 1020 10 16 0.00 0.00
11:53 am 11:53 Mostly Sunny 77 25 61 16.1 58 58 S 6 9 30.10 1019 10 16 0.00 0.00
12:53 pm 12:53 Mostly Cloudy 79 26.1 62 16.7 56 56 VRB 6 9 30.09 1019 10 16 0.00 0.00
1:53 pm 13:53 Mostly Cloudy 81 27.2 63 17.2 54 54 S 9 15 30.09 1019 10 16 0.00 0.00
2:53 pm 14:53 Mostly Cloudy 81 27.2 63 17.2 54 54 SW 8 13 30.08 1019 10 16 0.00 0.00
3:53 pm 15:53 Mostly Cloudy 80 26.7 63 17.2 56 56 W 5 7 30.07 1018 10 16 0.00 0.00
4:53 pm 16:53 Mostly Cloudy 80 26.7 64 17.8 58 58 VRB 3 6 30.07 1018 10 16 0.00 0.00
5:53 pm 17:53 Mostly Cloudy 79 26.1 65 18.3 62 62 VRB 3 6 30.06 1018 10 16 0.00 0.00
6:53 pm 18:53 Mostly Cloudy 78 25.6 64 17.8 62 62 NE 6 9 30.07 1018 10 16 0.00 0.00
7:53 pm 19:53 Mostly Cloudy 76 24.4 64 17.8 67 67 NE 5 7 30.08 1019 10 16 0.00 0.00
8:53 pm 20:53 Mostly Cloudy 76 24.4 64 17.8 67 67 ENE 6 9 30.08 1019 10 16 0.00 0.00
9:53 pm 21:53 Mostly Cloudy 75 23.9 63 17.2 66 66 SE 8 13 30.08 1019 10 16 0.00 0.00
10:53 pm 22:53 Mostly Cloudy 72 22.2 63 17.2 73 73 SE 8 13 30.08 1019 10 16 0.00 0.00
11:53 pm 23:53 Partly Cloudy 72 22.2 62 16.7 71 71 SSE 9 15 30.08 1019 10 16 0.00 0.00

Powered by AerisWeather